• In Czech Republic
  • List of Countries
  • For 7 days
  • Water Temperature
  • Satellite Maps
  • Weather Map
  • Weather Widgets
  • user-avatar
    Login

    Hourly Weather Trzemeszno

    Today, 21 October, Sunday

    Time Temperature Precipitation Wind Pressure Humidity
    00:00 +8°C° 0 mm 2 mps 760 mmHg 87%
    01:00 +7°C° 0 mm 2 mps 760 mmHg 90%
    02:00 +7°C° 0 mm 2 mps 760 mmHg 91%
    03:00 +8°C° 0 mm 1 mps 760 mmHg 92%
    04:00 +7°C° 0 mm 1 mps 760 mmHg 94%
    05:00 +7°C° 0 mm 1 mps 760 mmHg 94%
    06:00 +7°C° 0 mm 1 mps 761 mmHg 94%
    07:00 +6°C° 0 mm 0 mps 761 mmHg 95%
    08:00 +7°C° 0 mm 0 mps 761 mmHg 88%
    09:00 +10°C° 0 mm 1 mps 762 mmHg 81%
    10:00 +12°C° 0 mm 1 mps 762 mmHg 74%
    11:00 +12°C° 0 mm 1 mps 762 mmHg 69%
    12:00 +13°C° 0 mm 1 mps 762 mmHg 64%
    13:00 +14°C° 0 mm 1 mps 762 mmHg 59%
    14:00 +14°C° 0 mm 1 mps 761 mmHg 61%
    15:00 +13°C° 0 mm 1 mps 761 mmHg 62%
    16:00 +13°C° 0 mm 1 mps 761 mmHg 64%
    17:00 +12°C° 0 mm 1 mps 761 mmHg 68%
    18:00 +11°C° 0 mm 1 mps 761 mmHg 72%
    19:00 +10°C° 0 mm 1 mps 761 mmHg 77%
    20:00 +10°C° 0 mm 1 mps 761 mmHg 79%
    21:00 +9°C° 0 mm 1 mps 761 mmHg 81%
    22:00 +8°C° 0 mm 2 mps 761 mmHg 83%
    23:00 +7°C° 0 mm 2 mps 761 mmHg 84%

    Tomorrow, 22 October, Monday

    Time Temperature Precipitation Wind Pressure Humidity
    00:00 +7°C° 0 mm 2 mps 761 mmHg 86%
    01:00 +7°C° 0 mm 2 mps 761 mmHg 88%
    02:00 +7°C° 0 mm 2 mps 761 mmHg 89%
    03:00 +6°C° 0 mm 2 mps 760 mmHg 90%
    04:00 +6°C° 0 mm 2 mps 760 mmHg 90%
    05:00 +6°C° 0 mm 2 mps 760 mmHg 91%
    06:00 +6°C° 0 mm 2 mps 760 mmHg 91%
    07:00 +5°C° 0 mm 3 mps 760 mmHg 91%
    08:00 +7°C° 0 mm 3 mps 760 mmHg 84%
    09:00 +9°C° 0 mm 3 mps 760 mmHg 76%
    10:00 +10°C° 0 mm 4 mps 759 mmHg 69%
    11:00 +11°C° 0 mm 4 mps 759 mmHg 67%
    12:00 +11°C° 0 mm 4 mps 759 mmHg 66%
    13:00 +12°C° 0 mm 4 mps 758 mmHg 64%
    14:00 +11°C° 0.2 mm 4 mps 758 mmHg 70%
    15:00 +10°C° 0.2 mm 4 mps 758 mmHg 75%
    16:00 +10°C° 0.2 mm 4 mps 758 mmHg 81%
    17:00 +8°C° 0.2 mm 4 mps 758 mmHg 81%
    18:00 +8°C° 0.2 mm 4 mps 759 mmHg 81%
    19:00 +8°C° 0.2 mm 4 mps 759 mmHg 81%
    20:00 +7°C° 0 mm 4 mps 759 mmHg 82%
    21:00 +6°C° 0 mm 4 mps 759 mmHg 83%
    22:00 +5°C° 0 mm 4 mps 760 mmHg 83%
    23:00 +5°C° 0 mm 4 mps 760 mmHg 84%

    Day after tomorrow, 23 October, Tuesday

    Time Temperature Precipitation Wind Pressure Humidity
    00:00 +5°C° 0 mm 4 mps 760 mmHg 84%
    01:00 +4°C° 0 mm 4 mps 760 mmHg 85%
    02:00 +4°C° 0 mm 4 mps 759 mmHg 85%
    03:00 +4°C° 0 mm 4 mps 759 mmHg 86%
    04:00 +4°C° 0 mm 4 mps 758 mmHg 86%
    05:00 +3°C° 0 mm 5 mps 758 mmHg 85%
    06:00 +3°C° 0 mm 5 mps 757 mmHg 84%
    07:00 +3°C° 0 mm 5 mps 756 mmHg 83%
    08:00 +4°C° 0.2 mm 6 mps 756 mmHg 79%
    09:00 +4°C° 0.2 mm 7 mps 755 mmHg 76%
    10:00 +5°C° 0.2 mm 9 mps 754 mmHg 73%
    11:00 +5°C° 0.7 mm 9 mps 752 mmHg 75%
    12:00 +5°C° 0.7 mm 10 mps 751 mmHg 76%
    13:00 +4°C° 0.7 mm 11 mps 749 mmHg 77%
    14:00 +6°C° 1.3 mm 11 mps 748 mmHg 79%
    15:00 +6°C° 1.3 mm 11 mps 746 mmHg 80%
    16:00 +5°C° 1.3 mm 12 mps 744 mmHg 81%
    17:00 +7°C° 1.2 mm 12 mps 743 mmHg 82%
    18:00 +8°C° 1.2 mm 12 mps 742 mmHg 83%
    19:00 +8°C° 1.2 mm 12 mps 740 mmHg 84%
    20:00 +8°C° 1 mm 11 mps 740 mmHg 79%
    21:00 +8°C° 1 mm 10 mps 740 mmHg 75%
    22:00 +8°C° 1 mm 10 mps 740 mmHg 70%
    23:00 +7°C° 0 mm 9 mps 740 mmHg 70%

    24 October, Wednesday

    Time Temperature Precipitation Wind Pressure Humidity
    00:00 +7°C° 0 mm 9 mps 741 mmHg 70%
    01:00 +6°C° 0 mm 9 mps 741 mmHg 70%
    02:00 +6°C° 0.2 mm 9 mps 742 mmHg 66%
    03:00 +5°C° 0.2 mm 8 mps 742 mmHg 63%
    04:00 +4°C° 0.2 mm 8 mps 743 mmHg 59%
    05:00 +4°C° 0 mm 8 mps 743 mmHg 59%
    06:00 +3°C° 0 mm 7 mps 744 mmHg 58%
    07:00 +3°C° 0 mm 7 mps 744 mmHg 58%
    08:00 +4°C° 0 mm 8 mps 745 mmHg 53%
    09:00 +5°C° 0 mm 9 mps 745 mmHg 49%
    10:00 +6°C° 0 mm 10 mps 746 mmHg 44%
    11:00 +6°C° 0 mm 10 mps 746 mmHg 43%
    12:00 +7°C° 0 mm 10 mps 746 mmHg 41%
    13:00 +7°C° 0 mm 10 mps 747 mmHg 39%
    14:00 +7°C° 0 mm 9 mps 747 mmHg 41%
    15:00 +6°C° 0 mm 8 mps 747 mmHg 43%
    16:00 +6°C° 0 mm 7 mps 748 mmHg 45%
    17:00 +5°C° 0 mm 7 mps 748 mmHg 48%
    18:00 +4°C° 0 mm 6 mps 748 mmHg 51%
    19:00 +4°C° 0 mm 6 mps 749 mmHg 54%
    20:00 +3°C° 0 mm 6 mps 749 mmHg 56%
    21:00 +3°C° 0 mm 6 mps 749 mmHg 58%
    22:00 +3°C° 0 mm 5 mps 749 mmHg 61%
    23:00 +3°C° 0 mm 5 mps 749 mmHg 63%

    25 October, Thursday

    Time Temperature Precipitation Wind Pressure Humidity
    00:00 +2°C° 0 mm 5 mps 749 mmHg 66%
    01:00 +2°C° 0 mm 5 mps 749 mmHg 68%
    02:00 +2°C° 0 mm 5 mps 749 mmHg 72%
    03:00 +2°C° 0 mm 5 mps 749 mmHg 75%
    04:00 +2°C° 0 mm 5 mps 748 mmHg 78%
    05:00 +3°C° 0.4 mm 5 mps 748 mmHg 82%
    06:00 +5°C° 0.4 mm 5 mps 747 mmHg 86%
    07:00 +5°C° 0.4 mm 5 mps 747 mmHg 91%
    08:00 +7°C° 0.5 mm 6 mps 746 mmHg 89%
    09:00 +8°C° 0.5 mm 7 mps 746 mmHg 88%
    10:00 +10°C° 0.5 mm 8 mps 746 mmHg 87%
    11:00 +10°C° 0.2 mm 8 mps 746 mmHg 85%
    12:00 +10°C° 0.2 mm 8 mps 746 mmHg 82%
    13:00 +10°C° 0.2 mm 9 mps 745 mmHg 80%
    14:00 +10°C° 0.1 mm 8 mps 745 mmHg 80%
    15:00 +10°C° 0.1 mm 8 mps 746 mmHg 81%
    16:00 +10°C° 0.1 mm 8 mps 746 mmHg 81%
    17:00 +10°C° 0.2 mm 7 mps 746 mmHg 82%
    18:00 +10°C° 0.2 mm 7 mps 746 mmHg 83%
    19:00 +10°C° 0.2 mm 7 mps 746 mmHg 84%
    20:00 +10°C° 0.2 mm 6 mps 746 mmHg 85%
    21:00 +9°C° 0.2 mm 6 mps 746 mmHg 86%
    22:00 +9°C° 0.2 mm 6 mps 747 mmHg 87%
    23:00 +9°C° 0.2 mm 6 mps 746 mmHg 87%

    26 October, Friday

    Time Temperature Precipitation Wind Pressure Humidity
    00:00 +10°C° 0.2 mm 7 mps 746 mmHg 87%
    01:00 +10°C° 0.2 mm 7 mps 746 mmHg 87%
    02:00 +10°C° 0.1 mm 7 mps 746 mmHg 86%
    03:00 +9°C° 0.1 mm 7 mps 746 mmHg 86%
    04:00 +9°C° 0.1 mm 7 mps 746 mmHg 86%
    05:00 +9°C° 0.1 mm 6 mps 746 mmHg 86%
    06:00 +9°C° 0.1 mm 6 mps 746 mmHg 86%
    07:00 +8°C° 0.1 mm 6 mps 746 mmHg 87%
    08:00 +9°C° 0 mm 6 mps 746 mmHg 83%
    09:00 +9°C° 0 mm 6 mps 746 mmHg 80%
    10:00 +9°C° 0 mm 6 mps 746 mmHg 77%
    11:00 +9°C° 0 mm 6 mps 745 mmHg 75%
    12:00 +9°C° 0 mm 6 mps 745 mmHg 72%
    13:00 +10°C° 0 mm 6 mps 745 mmHg 70%
    14:00 +9°C° 0 mm 5 mps 744 mmHg 71%
    15:00 +9°C° 0 mm 5 mps 744 mmHg 72%
    16:00 +9°C° 0 mm 5 mps 744 mmHg 73%
    17:00 +8°C° 0 mm 4 mps 743 mmHg 75%
    18:00 +8°C° 0 mm 4 mps 743 mmHg 77%
    19:00 +8°C° 0 mm 4 mps 743 mmHg 78%
    20:00 +7°C° 0 mm 4 mps 743 mmHg 80%
    21:00 +8°C° 0 mm 3 mps 743 mmHg 82%
    22:00 +8°C° 0 mm 3 mps 742 mmHg 83%
    23:00 +7°C° 0 mm 3 mps 742 mmHg 85%
    Show more